ATLAS 5 CENTAUR DEB, 44679

Orbit data source: Space-Track

ATLAS 5 CENTAUR DEB, 44679 is space debris in HEO originally from a launch on Wed, 17 Oct 2018 UTC launched from the Air Force Eastern Test Range (AFETR). Debris objects in space refer to the collection of defunct objects orbiting the Earth. Examples of debris include non-operational satellites, rocket bodies, and fragments generated from explosions, collisions, or faulty payload assembly.

Loading next visibility...
ATLAS 5 CENTAUR DEB details
Identifier
44679, 2018-079AR
Orbit
HEO
Last TLE update10 hours ago
Origin
Flag of USULA (US)
ManufacturerULA Decatur
MissionSpacecraft
Bus & MotorUnknown
MassUnknown
Launch date (UTC)
2018-10-17 (6 years ago)
Launch vehicleUnknown
Launch site
Air Force Eastern Test Range (AFETR)
Object type
Payload
Rocket body
Debris
Shape & HBRUnknown
Radar Cross SectionRCS unknown

Expand to show TLE details & history

TLE from 10 hours ago
0 ATLAS 5 CENTAUR DEB
1 44679U 18079AR  24361.32169144 -.00000112  00000-0  00000+0 0  9995
2 44679  12.7015  83.4131 4718496 216.5011  99.3947  1.79404485 37028
Epoch: 2024-12-26T07:43Z
Definitive object data (Epoch: 2024-12-26T07:43:14.14Z)
Latitude-0.00001°
Longitude-127.74357°
Altitude29,473.699 km
Speed2.882 km/s
True Right ascension05h 33m 28s
True Declination0° 00' 00"
Sunlit
Object was in daylight at TLE epoch
Visualization TLE readout
Latitude-11.47754°
Longitude116.11754°
Altitude9,304.015 km
Speed6.075 km/s
Apparent Right ascension23h 03m 15s
Apparent Declination-26° 21' 18"
Sunlit
Object is in daylight
Visualization observer readout
Local Sidereal Time17:06:29
Azimuth111.261° ESE
Elevation-15.97°
Doppler factor1
Orbital elements
Apogee altitude35,734.099 km
Perigee altitude8,733.186 km
Semi-major axis28,611.779 km
Eccentricity0.4718496
Inclination12.7015°
RAAN83.4131°
Arg. of periapsis216.5011°
True anomaly143.44409°
Mean anomaly99.3947°
Eccentric anomaly122.25714°
Mean motion0.44846 °/min
BSTARUnknown
Orbital period802.74 mins
Loading maneuver chart data...

ATLAS 5 CENTAUR DEB Visibility forecast

Observer location: undefined°, undefined

Span
Click to sort rows by Start time (UTC) header in descending order
Start Az.
Max El. time (UTC)
Max El. Az.
Max El.
End time (UTC)
End Az.
79 mins2024-12-27 11:02:06.800Z255.197° W2024-12-27 11:40:06.800Z257.716° W10.402°2024-12-27 12:21:06.800Z260.701° W
|